This is the latest recevied weather packets stored in our database for station/object K6CED. If no packets are shown the sender has not sent any weather packets the latest 10 day(s).
| Time | Temp. | Humidity | Pressure | Rain* | Wind** | Luminosity | Snow |
|---|---|---|---|---|---|---|---|
| 1788557440 | 29.44° C | 38% | 1015.4 hPa | 0 mm | - | 737 W/m² | - |
| 1788557139 | 29.44° C | 36% | 1015.3 hPa | 0 mm | - | 746 W/m² | - |
| 1788556834 | 29.44° C | 37% | 1015.4 hPa | 0 mm | - | 756 W/m² | - |
| 1788556528 | 29.44° C | 35% | 1015.5 hPa | 0 mm | - | 765 W/m² | - |
| 1788556224 | 29.44° C | 36% | 1015.3 hPa | 0 mm | - | 770 W/m² | - |
| 1788555923 | 29.44° C | 35% | 1015.2 hPa | 0 mm | - | 778 W/m² | - |
| 1788555619 | 30° C | 35% | 1015.5 hPa | 0 mm | - | 785 W/m² | - |
| 1788555314 | 29.44° C | 35% | 1015.5 hPa | 0 mm | - | 788 W/m² | - |
| 1788555011 | 28.89° C | 35% | 1015.3 hPa | 0 mm | - | 794 W/m² | - |
| 1788554707 | 29.44° C | 34% | 1015.3 hPa | 0 mm | - | 793 W/m² | - |
| 1788554403 | 28.89° C | 35% | 1015.5 hPa | 0 mm | - | 793 W/m² | - |
| 1788554098 | 29.44° C | 34% | 1015.5 hPa | 0 mm | - | 792 W/m² | - |
| 1788553794 | 29.44° C | 33% | 1015.6 hPa | 0 mm | - | 782 W/m² | - |
| 1788553490 | 28.89° C | 34% | 1015.4 hPa | 0 mm | - | 769 W/m² | - |
| 1788553186 | 27.78° C | 35% | 1015.5 hPa | 0 mm | - | 759 W/m² | - |
| 1788552881 | 28.33° C | 33% | 1015.6 hPa | 0 mm | - | 750 W/m² | - |
| 1788552577 | 27.78° C | 37% | 1015.6 hPa | 0 mm | - | 739 W/m² | - |
| 1788552275 | 27.78° C | 39% | 1015.5 hPa | 0 mm | - | 734 W/m² | - |
| 1788551970 | 27.78° C | 39% | 1015.6 hPa | 0 mm | - | 730 W/m² | - |
| 1788551667 | 27.78° C | 39% | 1015.6 hPa | 0 mm | - | 728 W/m² | - |
| 1788551361 | 27.78° C | 38% | 1015.6 hPa | 0 mm | - | 728 W/m² | - |
| 1788551056 | 27.22° C | 40% | 1015.9 hPa | 0 mm | - | 731 W/m² | - |
| 1788550751 | 26.11° C | 40% | 1016.1 hPa | 0 mm | - | 734 W/m² | - |
| 1788550447 | 27.22° C | 41% | 1015.9 hPa | 0 mm | - | 740 W/m² | - |
| 1788550142 | 27.22° C | 41% | 1016 hPa | 0 mm | - | 750 W/m² | - |
* Rain latest hour (hover to see other rain measurements)
** Current wind speed in m/s (hover to see current wind gust speed)